Back to catalog

CUBESAT XI 5

AliveAmateur RadioSSO
NORAD 28895·PAYLOAD·🇯🇵 Japan

Launched Oct 27, 2005 from Plesetsk Cosmodrome

Loading…

Next Passes (next 24 hours)

TLE

FreshSource: Space-Track

Epoch: Sep 13, 2026, 09:17 UTC

1 28895U 05043F   26256.38689568  .00000953  00000-0  15723-3 0  9996
2 28895  98.3101  53.9328 0012785 287.3059  72.6748 14.72823236114731

Track CUBESAT XI 5 in real time with AllMySat

Download on the App Store